TimeCST,TemperatureF,Dew PointF,Humidity,Sea Level PressureIn,VisibilityMPH,Wind Direction,Wind SpeedMPH,Gust SpeedMPH,PrecipitationIn,Events,Conditions,WindDirDegrees,DateUTC
12:14 AM,15.8,14.0,93,29.94,1.8,Calm,Calm,-,N/A,,Mist,0,2013-01-08 06:14:00
12:34 AM,14.0,12.2,93,29.94,7.0,Calm,Calm,-,N/A,,Clear,0,2013-01-08 06:34:00
12:54 AM,12.2,8.6,85,29.95,7.0,Calm,Calm,-,N/A,,Clear,0,2013-01-08 06:54:00
1:14 AM,10.4,6.8,85,29.94,10.0,Calm,Calm,-,N/A,,Clear,0,2013-01-08 07:14:00
1:34 AM,10.4,6.8,85,29.94,5.0,Calm,Calm,-,N/A,,Clear,0,2013-01-08 07:34:00
1:54 AM,8.6,5.0,85,29.95,4.0,Calm,Calm,-,N/A,,Clear,0,2013-01-08 07:54:00
2:14 AM,10.4,6.8,85,29.96,10.0,Calm,Calm,-,N/A,,Clear,0,2013-01-08 08:14:00
2:34 AM,6.8,3.2,85,29.96,10.0,Calm,Calm,-,N/A,,Clear,0,2013-01-08 08:34:00
2:54 AM,6.8,3.2,85,29.97,10.0,Calm,Calm,-,N/A,,Clear,0,2013-01-08 08:54:00
3:14 AM,6.8,3.2,85,29.97,10.0,Calm,Calm,-,N/A,,Clear,0,2013-01-08 09:14:00
3:34 AM,6.8,3.2,85,29.96,10.0,Calm,Calm,-,N/A,,Clear,0,2013-01-08 09:34:00
3:54 AM,6.8,3.2,85,29.96,10.0,Calm,Calm,-,N/A,,Scattered Clouds,0,2013-01-08 09:54:00
4:14 AM,6.8,3.2,85,29.95,4.0,Calm,Calm,-,N/A,,Overcast,0,2013-01-08 10:14:00
4:34 AM,5.0,1.4,85,29.94,2.5,Calm,Calm,-,N/A,,Overcast,0,2013-01-08 10:34:00
4:54 AM,5.0,1.4,85,29.94,0.2,Calm,Calm,-,N/A,Fog,Light Freezing Fog,0,2013-01-08 10:54:00
5:14 AM,6.8,3.2,85,29.93,0.2,Calm,Calm,-,N/A,Fog,Light Freezing Fog,0,2013-01-08 11:14:00
5:34 AM,6.8,3.2,85,29.93,0.2,Calm,Calm,-,N/A,Fog,Light Freezing Fog,0,2013-01-08 11:34:00
5:54 AM,8.6,3.2,79,29.93,0.2,Calm,Calm,-,N/A,Fog,Light Freezing Fog,0,2013-01-08 11:54:00
6:14 AM,6.8,3.2,85,29.93,0.2,Calm,Calm,-,N/A,Fog,Light Freezing Fog,0,2013-01-08 12:14:00
6:34 AM,6.8,3.2,85,29.94,0.2,Calm,Calm,-,N/A,Fog,Light Freezing Fog,0,2013-01-08 12:34:00
6:54 AM,6.8,3.2,85,29.94,0.2,Calm,Calm,-,N/A,Fog,Light Freezing Fog,0,2013-01-08 12:54:00
7:34 AM,8.6,5.0,85,29.95,4.0,Calm,Calm,-,N/A,,Overcast,0,2013-01-08 13:34:00
7:54 AM,8.6,5.0,85,29.96,5.0,Calm,Calm,-,N/A,,Overcast,0,2013-01-08 13:54:00
8:14 AM,10.4,5.0,79,29.95,2.0,Calm,Calm,-,N/A,,Overcast,0,2013-01-08 14:14:00
8:34 AM,10.4,5.0,79,29.94,7.0,Calm,Calm,-,N/A,,Overcast,0,2013-01-08 14:34:00
8:54 AM,12.2,8.6,85,29.95,7.0,Calm,Calm,-,N/A,,Mostly Cloudy,0,2013-01-08 14:54:00
9:14 AM,12.2,8.6,85,29.96,7.0,Calm,Calm,-,N/A,,Scattered Clouds,0,2013-01-08 15:14:00
9:34 AM,14.0,12.2,93,29.94,5.0,Calm,Calm,-,N/A,,Clear,0,2013-01-08 15:34:00
9:54 AM,15.8,12.2,86,29.93,5.0,Calm,Calm,-,N/A,,Clear,0,2013-01-08 15:54:00
10:14 AM,17.6,14.0,86,29.92,5.0,Calm,Calm,-,N/A,,Scattered Clouds,0,2013-01-08 16:14:00
10:34 AM,19.4,17.6,93,29.92,5.0,Calm,Calm,-,N/A,,Mostly Cloudy,0,2013-01-08 16:34:00
10:54 AM,21.2,17.6,86,29.91,5.0,Calm,Calm,-,N/A,,Scattered Clouds,0,2013-01-08 16:54:00
11:14 AM,23.0,21.2,93,29.90,5.0,Calm,Calm,-,N/A,,Mostly Cloudy,0,2013-01-08 17:14:00
11:34 AM,23.0,21.2,93,29.89,7.0,Calm,Calm,-,N/A,,Scattered Clouds,0,2013-01-08 17:34:00
11:54 AM,24.8,23.0,93,29.87,7.0,East,4.6,-,N/A,,Clear,100,2013-01-08 17:54:00
12:14 PM,26.6,24.8,93,29.85,10.0,East,4.6,-,N/A,,Clear,90,2013-01-08 18:14:00
12:34 PM,26.6,24.8,93,29.83,10.0,East,3.5,-,N/A,,Clear,90,2013-01-08 18:34:00
12:54 PM,26.6,24.8,93,29.82,10.0,SE,4.6,-,N/A,,Clear,130,2013-01-08 18:54:00
1:14 PM,28.4,26.6,93,29.81,10.0,SE,6.9,-,N/A,,Scattered Clouds,140,2013-01-08 19:14:00
1:54 PM,30.2,23.0,75,29.79,10.0,ESE,6.9,-,N/A,,Mostly Cloudy,120,2013-01-08 19:54:00
2:14 PM,32.0,23.0,69,29.78,10.0,ESE,5.8,-,N/A,,Overcast,110,2013-01-08 20:14:00
2:34 PM,32.0,23.0,69,29.76,10.0,ESE,6.9,-,N/A,,Overcast,120,2013-01-08 20:34:00
2:54 PM,32.0,23.0,69,29.74,10.0,SE,8.1,-,N/A,,Overcast,130,2013-01-08 20:54:00
3:14 PM,32.0,24.8,75,29.71,10.0,ESE,9.2,-,N/A,,Mostly Cloudy,120,2013-01-08 21:14:00
3:34 PM,32.0,26.6,80,29.74,10.0,SSE,5.8,-,N/A,,Mostly Cloudy,160,2013-01-08 21:34:00
3:54 PM,33.8,26.6,75,29.74,10.0,SSE,6.9,-,N/A,,Mostly Cloudy,150,2013-01-08 21:54:00
4:14 PM,32.0,26.6,80,29.74,10.0,SSE,6.9,-,N/A,,Mostly Cloudy,160,2013-01-08 22:14:00
4:30 PM,32.0,24.8,75,29.74,10.0,South,9.2,-,N/A,,Overcast,170,2013-01-08 22:30:00
4:54 PM,32.0,24.8,75,29.74,10.0,South,8.1,-,N/A,,Overcast,170,2013-01-08 22:54:00
5:14 PM,32.0,24.8,75,29.73,10.0,South,12.7,18.4,N/A,,Overcast,180,2013-01-08 23:14:00
5:34 PM,32.0,26.6,80,29.73,10.0,South,11.5,16.1,N/A,,Overcast,190,2013-01-08 23:34:00
5:54 PM,32.0,26.6,80,29.73,10.0,SSW,10.4,-,N/A,,Overcast,200,2013-01-08 23:54:00
6:14 PM,32.0,26.6,80,29.73,10.0,SSW,8.1,-,N/A,,Overcast,200,2013-01-09 00:14:00
6:34 PM,32.0,26.6,80,29.73,10.0,SSW,8.1,-,N/A,,Overcast,210,2013-01-09 00:34:00
6:54 PM,32.0,26.6,80,29.73,10.0,SW,8.1,-,N/A,,Overcast,220,2013-01-09 00:54:00
7:14 PM,32.0,26.6,80,29.74,10.0,SW,9.2,-,N/A,,Overcast,230,2013-01-09 01:14:00
7:34 PM,32.0,26.6,80,29.74,10.0,WSW,10.4,-,N/A,,Overcast,240,2013-01-09 01:34:00
7:54 PM,32.0,26.6,80,29.74,10.0,WSW,11.5,19.6,N/A,,Overcast,250,2013-01-09 01:54:00
8:14 PM,32.0,26.6,80,29.75,10.0,West,11.5,18.4,N/A,,Overcast,260,2013-01-09 02:14:00
8:34 PM,32.0,26.6,80,29.76,10.0,West,10.4,-,N/A,,Overcast,260,2013-01-09 02:34:00
8:54 PM,32.0,26.6,80,29.76,10.0,WSW,8.1,-,N/A,,Overcast,250,2013-01-09 02:54:00
9:14 PM,32.0,26.6,80,29.76,10.0,WSW,8.1,-,N/A,,Overcast,250,2013-01-09 03:14:00
9:34 PM,32.0,26.6,80,29.77,10.0,WSW,5.8,-,N/A,,Overcast,250,2013-01-09 03:34:00
9:54 PM,32.0,26.6,80,29.78,10.0,WSW,6.9,-,N/A,,Overcast,240,2013-01-09 03:54:00
10:14 PM,30.2,26.6,86,29.79,10.0,SW,6.9,-,N/A,,Overcast,230,2013-01-09 04:14:00
10:34 PM,30.2,26.6,86,29.80,10.0,WSW,4.6,-,N/A,,Overcast,240,2013-01-09 04:34:00
11:14 PM,28.4,24.8,86,29.82,10.0,SW,6.9,-,N/A,,Clear,230,2013-01-09 05:14:00
11:54 PM,28.4,23.0,80,29.82,10.0,WSW,5.8,-,N/A,,Scattered Clouds,240,2013-01-09 05:54:00